GFSWCAN_sfc_rhum_114.txt.gz
RH
81 83 81 87 87 81 80 79 74 72 73 70 71 67 69 73 75 82 90 79 86 99 61 52 48 57 55 54 80 62 57 72 62 74 65 66 67 55 56 49 64 76 84 91 86 71 90 84 60 89 98 95 93 81
77 76 78 84 87 87 81 80 76 75 75 73 72 68 70 70 75 74 89 84 92 99 88 78 68 56 56 52 57 55 58 59 49 77 73 64 70 67 60 76 72 83 70 81 97 98 98 88 96 91 76 68 61 61
80 78 75 76 81 84 81 81 77 76 75 72 72 69 66 68 71 74 88 94 98 100 90 70 54 44 46 49 48 67 55 46 54 73 85 76 73 65 80 71 68 65 54 82 82 89 84 91 95 95 90 75 54 51
76 74 74 76 78 82 83 79 80 78 74 70 72 70 66 66 68 76 90 85 97 97 96 49 35 43 34 38 46 49 52 54 60 63 79 76 70 46 62 54 70 68 67 95 96 83 83 86 97 99 94 74 61 53
74 75 74 77 80 82 82 82 82 77 73 69 72 71 67 66 68 70 85 91 80 93 99 68 51 36 36 39 42 46 60 65 63 76 84 79 50 64 58 55 94 72 97 92 94 97 100 99 100 98 94 92 61 52
62 64 68 72 77 82 84 84 81 77 75 72 69 68 66 66 73 81 97 84 78 87 100 80 51 46 39 42 44 48 56 64 71 69 80 66 48 68 84 78 79 76 78 93 100 100 92 100 100 98 93 92 75 63
69 65 66 69 71 74 80 84 82 79 75 69 70 68 65 68 76 97 90 96 89 90 100 87 56 45 42 48 62 63 63 67 67 71 72 59 59 71 84 75 81 75 77 91 98 99 97 92 94 98 96 86 72 65
64 64 64 70 73 75 76 79 81 80 73 70 68 68 66 66 74 91 68 90 95 96 95 89 69 69 50 68 76 62 70 75 79 64 59 67 61 80 91 72 63 64 67 81 89 81 91 95 93 92 88 85 71 56
66 67 69 67 66 74 78 75 79 76 77 72 67 66 69 77 89 70 85 90 88 98 100 91 80 79 58 77 87 85 73 91 59 81 64 67 74 93 94 68 64 61 64 61 72 68 73 83 90 90 89 84 76 58
69 69 69 70 69 70 73 76 80 76 70 67 70 80 99 94 82 82 97 99 100 98 98 90 52 75 62 85 92 86 83 81 88 71 55 85 95 81 70 65 59 58 53 54 77 81 58 65 73 78 75 63 57 63
68 68 69 67 65 65 72 77 79 73 69 83 99 99 81 86 88 98 100 100 99 97 73 63 56 71 58 89 92 92 99 79 74 66 72 72 90 91 71 68 61 57 54 57 55 57 55 57 58 59 60 61 64 67
68 68 66 66 65 66 73 80 78 70 72 91 91 92 97 99 100 100 98 76 72 61 67 73 67 56 75 77 87 92 89 82 79 70 83 80 91 69 62 58 55 58 57 60 61 68 71 69 65 64 64 69 74 73
73 73 68 68 67 66 76 80 77 69 84 96 92 100 100 99 100 97 92 76 80 70 83 83 90 72 79 70 93 95 92 88 82 96 92 90 77 61 56 54 56 56 59 62 67 68 72 78 83 82 87 89 87 92
75 73 69 69 69 69 78 84 78 75 94 99 98 95 99 96 84 74 69 76 84 91 87 84 83 85 85 89 99 89 87 89 91 96 93 86 83 67 61 61 65 76 81 80 84 84 86 87 91 90 91 90 91 92
74 71 69 67 70 70 80 85 77 85 89 98 99 97 94 96 97 100 100 94 86 84 85 91 80 70 97 99 88 89 93 86 87 91 90 86 80 75 77 72 75 80 88 87 84 85 88 89 87 90 90 88 85 90
70 67 61 68 70 75 91 91 96 96 97 98 94 96 91 96 97 100 100 100 86 94 88 84 87 91 93 88 93 94 82 94 93 90 85 80 83 81 82 82 83 84 82 84 85 83 83 87 86 85 84 85 89 88
70 52 64 71 80 90 91 99 99 99 83 93 93 89 94 100 100 100 100 98 90 100 100 76 87 81 75 76 79 76 93 92 89 90 81 78 83 86 85 83 87 85 84 82 83 83 82 78 92 88 87 90 88 85
60 69 75 82 90 97 99 98 81 82 83 78 86 90 92 98 98 98 99 99 99 84 73 80 63 74 79 80 90 88 90 88 81 84 85 84 83 84 85 84 85 83 82 84 84 84 83 86 82 71 78 72 83 83
78 80 89 88 73 77 88 89 78 84 86 80 84 83 87 92 86 87 95 91 77 61 65 68 89 77 82 83 91 91 90 85 88 87 87 88 86 88 87 85 84 82 81 82 86 83 69 79 72 63 60 61 65 61
80 84 88 80 76 84 87 87 65 66 82 82 80 83 88 90 89 99 91 72 66 70 83 82 88 90 88 88 85 85 88 81 79 84 87 84 80 83 80 80 75 76 75 72 69 73 66 66 59 63 61 62 82 82
87 92 86 88 98 92 90 77 64 62 70 81 70 68 83 84 93 96 84 59 84 82 84 85 92 94 91 86 81 77 77 68 72 68 74 84 80 73 77 74 70 72 71 76 89 68 73 71 64 64 88 88 84 83
97 89 98 97 92 79 84 57 59 60 70 71 76 71 86 92 92 88 63 81 82 82 78 82 83 83 79 81 79 78 82 76 72 67 70 74 79 74 75 74 72 75 76 77 72 83 76 69 71 72 83 81 79 83
92 94 94 74 85 79 86 63 75 66 81 84 68 76 81 81 72 52 83 69 81 74 74 72 77 81 88 87 79 77 79 67 64 67 70 71 72 76 74 72 74 77 75 64 57 69 83 77 75 78 75 75 74 82
66 89 99 88 73 86 83 85 57 61 66 72 76 77 75 76 60 70 78 77 80 83 79 91 74 75 69 65 65 68 66 59 64 67 66 61 65 67 63 62 65 64 60 56 59 69 69 90 79 67 77 73 78 80
78 86 93 89 79 79 77 76 74 69 80 70 71 74 77 65 82 80 76 84 84 84 81 71 66 63 68 71 68 66 62 55 60 63 60 52 64 60 59 55 56 57 59 75 76 76 81 78 76 72 70 72 76 73
84 86 81 78 83 76 74 82 79 78 72 76 75 65 71 78 80 77 57 84 87 85 88 84 77 68 62 59 64 64 58 53 54 58 55 52 57 72 73 72 73 74 60 72 76 71 75 73 73 71 73 76 90 77
83 82 65 52 57 62 81 73 61 73 77 79 79 83 80 80 73 68 70 71 74 77 71 68 60 58 58 56 55 58 56 54 62 57 57 54 56 59 73 76 71 83 69 70 72 71 72 79 73 72 76 71 78 78
72 73 85 82 74 65 75 72 76 74 75 59 67 78 74 68 73 69 72 73 77 68 66 65 60 54 56 62 69 74 80 79 80 75 71 67 68 76 81 85 84 86 83 86 79 76 74 71 71 72 72 74 83 78
79 71 64 84 74 76 77 77 76 68 63 67 76 73 75 75 83 83 90 80 74 75 77 75 80 81 79 77 80 80 84 84 82 84 81 85 87 84 77 78 78 78 82 82 87 84 82 87 89 90 72 75 77 78
82 72 72 76 79 80 86 82 88 81 64 73 61 60 67 78 78 76 93 83 84 87 84 87 91 88 90 90 93 91 86 84 81 80 81 83 83 87 85 83 82 80 80 83 84 79 80 80 83 79 78 80 77 79
70 76 76 74 83 87 87 84 84 81 78 76 83 86 82 83 88 83 93 90 88 90 92 90 89 86 88 89 89 90 93 88 90 84 88 91 88 87 86 84 83 81 78 77 79 78 84 78 76 74 74 76 79 84
79 79 78 80 87 83 83 90 85 84 84 86 83 80 87 88 85 85 87 93 94 90 84 86 90 91 83 83 85 82 78 88 89 87 80 85 85 85 83 81 83 79 78 77 76 79 76 74 75 74 75 73 78 79
77 77 75 79 84 82 83 84 70 78 78 80 84 83 92 90 91 91 81 88 95 95 87 90 95 94 93 88 86 89 84 85 82 82 81 82 81 83 84 84 81 80 78 79 78 76 73 72 73 73 78 83 82 82

GFSWCAN_sfc_rhum_117.txt.gz
RH
84 89 91 90 79 82 81 78 79 78 78 76 75 73 72 74 76 91 96 87 96 98 88 74 73 90 84 81 93 81 82 83 88 91 93 90 88 77 78 96 99 93 94 100 92 89 94 96 76 92 98 95 91 92
86 87 92 92 88 79 81 80 78 77 78 77 77 74 72 74 76 79 96 93 95 98 93 91 84 77 80 74 88 83 79 74 75 95 96 94 94 89 85 97 75 98 86 99 96 97 98 95 99 98 95 82 69 64
82 81 84 88 89 88 82 79 79 78 79 77 78 71 71 71 74 79 95 98 97 100 96 96 86 66 61 66 67 90 79 64 83 86 96 96 92 92 97 88 80 78 76 95 96 91 92 89 89 95 94 95 70 61
82 81 82 83 86 87 87 82 80 79 79 78 75 75 71 68 68 75 96 97 96 99 98 82 50 60 53 60 69 72 73 68 73 86 92 95 93 67 84 76 89 89 82 98 94 91 96 91 97 97 89 85 70 64
82 79 80 82 84 84 87 83 81 81 79 73 71 73 68 66 65 82 94 94 94 94 98 95 72 59 51 52 56 66 72 73 79 94 90 96 80 85 85 91 98 83 94 91 96 96 98 97 99 94 91 89 73 65
76 78 77 79 82 84 84 82 81 80 76 75 72 72 69 68 69 94 95 97 94 94 99 99 76 60 56 57 59 61 78 84 92 92 97 93 64 84 94 96 88 81 82 86 97 100 94 100 99 98 96 96 81 72
74 70 72 71 80 81 82 84 81 79 78 77 75 72 69 72 92 98 97 98 92 92 99 91 93 62 57 66 83 88 82 89 91 89 92 85 79 84 96 98 86 82 81 85 100 100 96 97 97 97 98 97 79 70
69 67 71 76 75 79 83 84 84 81 78 75 75 73 69 68 76 90 75 86 96 97 96 92 93 85 66 88 91 84 83 84 92 90 84 87 84 87 99 85 71 69 74 88 86 87 94 92 90 91 88 92 87 90
72 73 74 72 75 78 84 84 83 78 75 72 71 69 82 91 95 87 77 89 95 98 100 98 92 94 72 91 96 91 88 99 86 96 87 84 95 97 98 78 69 66 68 65 77 74 78 87 87 88 91 92 90 87
71 72 74 74 75 76 79 82 82 77 74 76 82 96 99 97 79 84 95 100 100 97 99 98 81 94 86 98 100 97 99 98 99 94 85 96 98 97 82 70 64 66 64 66 94 75 72 81 81 71 68 68 69 72
68 67 68 69 72 73 73 80 81 80 73 92 97 94 90 81 92 94 94 98 98 99 98 94 85 94 84 95 97 94 98 99 98 89 92 99 94 95 82 75 71 69 70 74 75 77 77 72 76 74 74 72 72 74
68 68 65 65 67 66 69 79 82 87 91 89 88 92 98 93 92 92 97 98 98 89 96 95 90 83 90 95 97 95 91 87 90 94 96 97 97 85 75 70 72 76 75 77 76 82 82 79 76 76 74 76 82 82
68 70 66 65 67 65 72 79 79 78 84 94 97 100 99 98 96 93 97 96 96 93 93 94 96 94 92 91 98 90 86 88 95 99 97 99 93 72 72 72 75 74 74 76 77 76 79 89 92 92 97 96 94 95
73 74 71 68 68 71 75 79 78 84 94 97 97 97 97 96 93 94 92 91 90 96 93 94 96 95 97 95 92 83 87 93 92 99 99 98 92 83 77 75 84 93 92 92 94 94 94 96 98 98 98 97 97 98
71 74 72 68 71 69 76 80 79 89 98 99 98 98 98 99 99 100 100 99 100 95 90 94 93 92 98 87 84 88 94 97 97 99 99 97 91 86 88 86 91 94 97 96 96 97 97 96 95 96 96 97 96 96
73 75 72 71 69 67 75 87 96 92 84 99 98 98 98 99 99 99 100 100 98 98 96 95 97 86 96 82 95 93 97 98 98 99 97 95 95 94 95 95 95 94 94 96 96 95 95 95 96 97 96 96 96 96
74 74 68 73 73 78 95 97 99 95 96 94 98 97 99 99 99 100 100 100 98 100 98 84 91 75 94 93 93 95 99 99 97 97 94 92 95 96 95 95 96 95 95 95 96 95 95 94 95 95 99 97 93 94
74 72 71 73 83 98 99 98 93 83 91 92 97 98 98 99 99 99 100 100 100 98 95 95 91 91 88 86 100 99 99 97 95 95 96 94 93 93 93 96 96 94 95 95 94 93 91 92 95 95 92 91 93 94
76 74 72 83 94 94 96 98 92 96 96 95 96 97 97 98 96 97 100 99 98 88 95 94 97 94 98 99 97 97 96 93 96 96 95 95 94 95 95 95 94 95 94 94 94 96 97 93 94 94 90 92 96 95
73 75 85 87 80 85 90 95 85 81 92 94 95 96 97 98 98 99 99 98 93 95 96 96 99 99 98 98 94 92 92 90 91 96 97 98 94 95 95 95 95 94 95 95 94 88 92 95 92 89 91 94 97 97
85 91 83 84 97 99 98 96 91 80 88 94 95 84 97 96 98 99 99 82 99 99 98 98 99 98 95 94 90 86 86 81 88 87 92 97 97 94 91 96 91 96 94 94 96 93 93 95 96 97 98 99 98 96
96 91 98 98 99 100 98 93 84 81 88 90 88 88 97 98 98 99 93 99 99 97 97 98 96 94 92 91 88 85 86 85 82 82 87 90 96 98 95 93 94 98 97 97 97 97 96 96 97 97 97 97 97 97
91 91 98 99 99 96 97 83 89 79 94 93 92 92 96 98 95 77 96 97 98 95 94 92 90 90 94 95 90 89 85 78 84 87 88 94 93 93 94 96 96 94 93 94 93 95 94 95 94 96 92 94 94 92
89 99 99 99 98 98 98 98 94 95 94 95 95 96 94 94 83 92 97 96 98 95 91 95 92 95 90 85 95 95 93 80 86 93 96 92 94 94 92 93 91 92 91 90 91 94 96 93 93 93 92 91 93 96
96 96 98 98 97 98 98 92 89 85 95 93 89 90 96 92 97 97 90 99 98 95 95 88 86 82 88 95 94 94 82 76 87 90 90 83 93 89 89 87 90 89 91 92 95 95 98 97 93 95 91 98 96 87
97 97 96 91 93 91 87 93 92 91 90 88 88 93 93 96 97 95 91 94 93 92 92 89 86 84 81 76 84 86 82 83 78 88 92 75 80 86 89 90 92 94 93 96 95 95 92 93 94 86 92 98 96 90
96 96 84 66 79 85 92 91 85 92 91 93 94 96 96 99 94 94 96 95 93 92 81 79 73 73 76 76 75 90 92 83 77 79 80 81 90 96 94 89 94 95 92 92 92 91 94 89 92 90 89 98 93 92
85 85 95 90 91 91 91 90 91 90 90 91 89 93 93 93 98 98 99 95 90 80 82 93 87 80 73 77 88 89 90 85 85 84 84 88 93 96 96 96 94 95 95 96 96 93 93 94 92 89 89 96 95 94
93 86 82 88 89 91 94 97 96 92 88 94 96 96 97 98 98 97 97 95 93 88 91 94 92 86 87 90 91 89 88 88 88 94 97 100 100 100 97 95 94 94 95 95 94 97 95 97 98 98 95 99 97 97
92 91 91 88 93 97 99 98 98 95 92 95 87 86 92 96 98 95 97 96 94 96 98 94 92 89 93 94 98 99 97 95 94 88 90 94 92 94 92 94 95 94 93 94 95 94 93 99 94 93 92 93 95 98
85 92 88 92 97 98 96 94 95 94 93 96 95 96 98 98 98 96 95 97 97 96 95 95 95 95 93 94 93 95 98 98 96 95 94 92 90 91 91 91 93 95 95 92 94 96 98 97 97 97 96 96 100 93
93 92 93 97 99 94 94 98 98 98 95 97 97 96 98 96 98 98 96 95 97 98 96 94 96 98 95 94 94 95 92 95 96 94 92 91 92 92 92 94 91 94 91 91 94 92 87 88 93 92 93 88 94 94
90 90 91 96 99 98 94 98 96 93 96 97 98 97 98 97 99 98 92 93 96 97 97 97 96 96 95 94 95 95 94 94 93 89 91 92 90 91 94 94 94 93 89 91 92 91 89 84 89 88 91 92 92 92

GFSWCAN_sfc_rhum_120.txt.gz
RH
89 90 87 87 82 83 82 81 79 80 79 77 75 75 76 79 82 93 98 93 93 99 90 86 85 93 91 88 94 84 80 82 89 93 96 95 93 80 82 94 95 97 98 97 93 90 92 91 80 89 100 90 84 81
87 87 91 92 86 82 82 81 83 82 80 79 77 77 76 79 79 83 99 98 96 96 92 92 84 74 79 78 91 90 82 78 85 96 97 96 96 93 86 98 85 98 97 95 91 96 96 93 99 99 98 95 90 79
85 87 92 92 88 81 82 82 82 82 82 80 79 73 74 77 77 85 99 98 96 97 94 96 77 68 76 77 72 92 87 74 86 88 95 98 98 95 97 88 87 84 82 96 96 93 92 91 87 90 95 89 79 95
89 88 88 89 90 80 81 81 82 82 82 81 79 78 75 72 74 84 97 96 95 91 94 82 60 60 60 72 78 76 75 71 74 90 93 98 97 75 86 79 94 96 88 96 91 95 92 88 88 86 81 82 67 66
84 85 88 91 92 89 84 81 83 83 82 78 76 74 70 69 71 89 97 96 90 92 96 95 79 67 64 70 75 77 78 80 90 94 96 96 91 87 87 94 99 85 92 93 98 99 95 89 92 90 95 83 78 78
85 85 84 86 89 91 90 84 83 82 81 76 75 72 69 70 78 96 96 96 96 96 96 96 84 71 64 59 60 73 84 86 94 94 97 95 79 86 96 92 86 84 85 94 99 98 98 98 98 95 96 95 79 80
82 79 81 84 86 86 89 82 79 82 79 79 78 75 71 74 95 96 95 97 91 94 94 88 95 74 67 77 87 91 82 88 90 93 95 90 81 85 98 98 93 87 84 89 97 93 97 96 98 94 93 98 89 87
76 76 76 80 84 86 86 83 81 81 80 78 77 76 74 71 78 84 77 89 94 97 98 92 94 86 73 91 91 92 91 85 89 93 92 91 88 91 99 94 81 81 80 87 85 91 96 94 89 91 91 91 89 91
75 78 78 75 78 83 84 84 83 81 78 75 74 73 87 93 97 87 74 87 96 98 97 97 93 93 82 96 95 93 92 97 89 97 92 89 97 99 98 86 76 77 73 79 87 85 90 93 93 89 87 87 84 87
74 77 79 77 72 81 83 86 83 79 78 75 83 95 99 97 74 87 93 100 99 93 97 98 93 94 88 99 97 97 97 99 100 95 91 97 98 97 91 76 75 75 71 92 82 86 83 88 78 77 76 72 72 73
69 71 73 75 75 78 81 85 82 79 77 92 98 95 88 76 93 91 94 97 99 98 90 86 94 93 90 96 98 95 97 98 99 91 94 98 96 96 91 82 75 74 76 79 82 84 79 84 78 78 76 73 73 74
67 68 69 72 74 77 80 84 82 92 96 89 89 92 96 94 90 88 92 90 96 93 98 99 96 89 92 97 97 97 87 90 94 96 99 97 98 88 79 80 80 81 80 80 78 85 82 77 76 74 74 79 84 86
70 67 66 68 70 71 78 84 79 83 85 94 89 99 99 98 98 96 93 93 100 95 96 96 94 92 93 95 97 98 84 85 95 98 98 98 94 80 82 80 81 77 75 74 76 76 81 91 92 91 96 97 95 96
75 73 67 67 69 72 80 83 80 85 94 94 94 99 97 96 97 90 94 94 91 97 94 94 97 94 98 95 96 83 88 87 90 99 94 98 93 86 82 80 82 92 93 94 96 96 96 97 99 98 98 98 97 98
71 72 69 67 68 71 76 82 83 94 98 98 94 96 99 97 99 98 98 98 98 97 91 96 96 93 99 85 90 79 98 94 97 95 98 98 93 90 92 90 93 95 97 97 98 98 99 98 98 100 100 99 97 98
71 74 77 72 70 70 79 87 98 91 94 96 90 99 97 99 98 99 100 100 100 100 97 95 97 88 92 88 93 85 92 96 95 99 98 95 95 95 94 93 96 96 95 97 97 97 97 98 97 98 98 97 99 98
73 84 72 74 75 85 93 99 98 95 96 94 98 98 99 99 99 99 100 100 99 98 97 82 89 77 91 93 96 92 93 96 98 96 97 93 94 96 96 95 96 96 97 96 97 96 96 96 97 96 97 96 96 96
84 80 75 70 86 97 100 99 95 91 87 94 96 97 99 99 99 99 99 100 100 100 97 92 91 93 89 86 92 99 97 98 99 97 97 96 95 96 93 96 96 95 96 97 96 97 97 100 100 99 96 96 98 98
86 80 76 82 88 99 99 99 91 97 96 97 98 99 99 98 96 98 100 99 99 94 96 95 97 95 97 99 100 100 97 98 96 100 100 97 93 93 96 96 96 98 95 96 96 96 98 96 96 97 98 96 99 99
76 82 85 80 87 99 91 97 92 89 95 92 98 99 97 98 98 100 99 100 98 99 97 96 97 98 97 98 98 93 94 92 93 96 99 100 99 96 97 94 95 94 94 96 98 98 97 98 96 95 98 96 97 98
81 90 85 92 99 98 94 98 97 90 94 97 94 93 98 98 98 98 99 92 99 98 100 99 100 100 99 98 92 89 91 85 88 87 89 97 99 93 96 96 94 97 97 98 96 97 98 97 97 97 99 100 98 96
95 83 98 98 98 97 98 98 91 86 93 95 96 92 98 100 100 99 97 99 100 97 97 99 99 99 97 97 93 87 87 86 90 86 90 89 98 94 94 98 98 96 97 96 96 96 96 97 98 96 98 100 98 98
85 92 98 98 99 99 96 93 94 89 97 97 97 98 98 99 97 84 97 96 98 96 98 98 96 96 94 98 91 89 86 84 89 88 89 88 92 96 94 96 94 96 97 99 93 93 95 99 99 98 99 100 97 94
91 97 98 99 98 98 99 99 96 93 97 98 97 99 96 97 82 96 98 98 96 98 97 97 92 97 96 89 91 89 88 80 87 89 84 93 95 96 92 94 96 91 87 95 92 93 94 96 97 98 99 100 100 99
95 95 98 97 98 98 99 98 97 94 98 97 98 96 97 92 98 100 97 97 98 96 97 95 93 87 90 98 96 94 90 79 84 88 96 88 97 96 94 94 96 91 89 95 98 97 96 98 100 97 96 100 93 97
98 97 98 96 97 96 94 99 98 97 96 94 92 94 96 97 98 96 94 99 98 90 94 95 94 94 92 83 85 93 90 82 82 89 94 84 84 89 92 92 93 93 96 89 94 97 97 98 98 94 100 100 100 100
98 97 96 78 94 97 98 97 90 92 96 96 95 98 97 100 100 94 98 97 97 98 88 87 82 82 84 85 90 95 86 83 84 85 94 93 90 83 81 86 89 86 94 92 92 91 89 91 94 91 93 100 96 94
94 96 96 97 97 96 96 97 96 93 94 95 93 99 99 95 96 98 99 98 98 94 90 90 86 86 87 92 95 95 94 92 93 92 92 94 96 98 97 97 94 91 92 91 92 95 91 89 90 92 96 98 99 100
97 95 89 96 96 96 98 98 98 97 96 98 96 99 100 97 98 98 97 97 97 94 97 96 97 94 95 95 96 92 89 86 87 91 93 100 100 98 98 96 94 95 94 94 95 96 90 93 91 89 92 92 93 100
95 92 91 95 96 99 98 99 99 98 98 97 91 95 96 97 98 95 94 96 98 97 98 96 94 92 94 92 97 98 98 97 90 83 85 92 91 95 95 96 95 96 96 94 95 96 94 97 97 93 93 96 98 98
93 96 96 98 100 100 98 98 99 98 98 98 98 98 98 98 98 94 93 95 97 96 95 96 97 97 93 94 92 96 99 98 94 90 94 94 94 92 90 94 94 93 93 92 92 94 96 97 96 94 93 95 98 98
96 99 97 100 100 96 98 99 99 100 98 99 100 100 99 97 99 97 95 94 93 95 97 97 95 99 97 96 96 97 94 97 98 97 94 95 94 93 93 94 95 95 94 95 94 94 93 92 95 95 96 95 94 93
94 97 99 100 100 100 98 99 98 98 97 98 99 98 99 99 100 99 96 94 96 96 96 97 97 98 98 98 97 99 99 97 97 94 96 96 94 94 94 95 95 93 92 94 94 92 88 87 91 91 92 92 92 93

GFSWCAN_sfc_rhum_126.txt.gz
RH
89 85 88 82 87 85 82 80 82 81 76 75 77 80 86 84 81 92 99 97 86 96 82 84 84 87 88 85 82 79 81 82 94 95 92 95 93 87 83 95 93 83 87 83 78 89 91 89 77 90 100 98 93 92
90 87 82 80 88 83 82 83 84 83 80 77 78 81 84 81 79 84 98 97 94 92 83 94 88 83 73 73 88 93 77 84 94 96 98 97 98 97 89 96 83 98 82 82 92 94 93 92 96 97 98 96 94 89
91 89 81 79 80 86 79 80 83 83 82 80 78 81 80 80 81 85 98 98 94 95 83 82 80 78 82 77 73 83 92 81 90 89 96 99 94 96 97 88 91 92 86 88 94 96 92 89 81 83 92 92 84 92
93 84 80 80 85 88 79 78 81 83 83 83 80 82 81 80 80 83 97 97 94 94 94 79 62 67 79 80 81 75 82 82 86 93 94 98 95 84 89 85 95 84 84 91 88 95 94 90 89 91 89 91 86 88
92 86 83 85 88 88 85 83 82 83 83 82 79 79 79 82 83 90 98 99 95 86 93 80 74 73 72 83 83 81 83 84 88 94 97 97 94 92 91 94 98 86 90 94 92 97 95 96 94 94 96 88 90 84
91 93 92 88 87 85 80 81 84 84 83 82 78 75 77 77 73 88 95 93 97 94 93 80 82 75 83 86 80 83 90 90 91 92 98 96 86 90 97 96 94 93 92 94 96 93 94 96 88 92 93 94 86 84
89 90 90 90 90 82 84 85 86 84 84 82 78 76 79 78 92 92 91 95 91 93 94 90 90 80 77 80 94 92 85 91 92 93 95 93 86 93 98 96 96 91 90 91 94 91 94 93 99 96 89 90 86 88
90 92 93 88 90 84 86 86 84 84 84 81 80 78 73 71 74 88 92 89 93 94 92 96 91 90 73 90 92 88 94 88 91 91 90 95 91 94 99 91 89 84 80 87 94 95 98 95 94 95 89 84 83 86
86 91 91 90 90 86 85 82 83 84 82 81 78 70 81 90 91 84 88 88 96 92 97 97 96 98 87 97 93 94 90 88 91 97 96 93 98 98 94 92 91 84 89 93 90 90 85 84 87 87 83 80 79 79
88 90 93 92 91 86 83 83 83 82 82 73 79 90 95 92 76 86 92 100 98 96 96 98 94 98 88 97 96 95 95 94 98 93 96 98 90 96 91 83 84 87 89 94 89 90 80 81 80 77 77 74 74 74
82 86 90 90 91 87 84 83 82 81 73 91 97 96 87 80 91 93 98 94 96 96 96 91 90 92 91 97 99 98 97 95 92 94 98 98 97 97 92 88 82 81 82 87 86 83 75 73 76 74 76 75 76 78
82 83 87 90 91 87 82 83 78 87 85 85 90 91 93 90 96 89 97 92 95 88 95 90 95 93 96 95 97 98 86 95 92 96 99 100 97 95 88 83 80 80 81 84 82 85 80 72 72 75 79 84 87 86
82 86 87 94 92 85 83 78 73 80 86 91 94 94 92 95 95 93 96 95 96 96 96 99 100 96 98 95 93 94 91 95 96 98 95 95 96 87 82 78 77 71 73 79 83 84 86 91 92 92 98 99 99 100
81 88 90 87 91 86 80 78 80 78 88 94 93 99 93 96 90 94 92 93 95 98 99 99 98 97 99 94 100 90 92 85 98 98 91 98 95 91 84 80 82 92 94 95 96 95 96 96 100 100 100 100 99 100
74 84 92 89 93 82 78 81 79 92 95 96 89 97 100 95 98 98 96 98 98 97 98 98 98 94 98 94 93 89 96 99 94 91 93 98 94 91 93 90 94 95 96 97 98 98 100 99 99 100 100 100 98 100
74 76 86 89 95 90 84 86 94 93 97 95 86 96 98 99 97 97 98 95 99 98 98 99 97 96 96 94 92 81 75 90 89 96 98 96 95 94 95 93 93 94 95 97 97 96 97 97 97 99 99 98 100 100
76 93 77 80 95 94 91 98 95 91 97 93 95 90 96 99 98 99 99 99 100 97 99 99 88 81 90 90 93 84 92 91 96 100 99 94 92 94 95 94 94 94 96 96 96 97 98 97 97 94 94 98 98 98
95 85 76 90 96 98 100 99 95 92 97 98 97 96 100 99 99 99 99 100 99 99 98 86 88 94 85 86 95 93 100 100 100 100 99 97 95 94 91 92 93 93 95 96 96 96 97 98 96 98 96 96 97 98
91 83 78 80 90 98 98 98 94 95 96 98 98 99 99 98 99 98 100 99 99 100 99 97 95 96 93 95 92 98 100 99 99 100 100 99 94 92 95 94 94 97 95 96 96 95 96 94 96 97 97 97 99 99
81 80 77 82 86 95 94 99 95 94 98 94 99 99 99 98 99 100 98 99 98 99 99 98 94 94 94 95 96 96 98 96 95 99 100 100 99 95 94 91 92 93 93 97 98 97 98 99 98 98 98 97 99 100
85 88 84 92 98 97 95 97 96 95 98 97 98 96 99 98 98 98 98 96 96 99 99 98 97 98 98 98 98 97 94 88 92 91 92 99 100 94 96 96 95 93 94 98 97 99 99 98 97 98 100 100 99 98
94 84 99 94 98 91 87 93 96 94 96 98 98 97 99 99 100 99 98 100 99 95 98 99 98 100 100 99 98 96 94 92 92 90 93 90 98 98 97 96 96 96 95 95 94 96 97 97 98 98 100 100 99 99
84 88 94 94 95 91 93 93 93 92 95 96 96 95 98 100 98 92 100 97 97 98 98 98 98 97 97 99 96 96 94 87 93 94 93 90 92 94 94 97 94 94 94 95 94 96 97 99 99 98 100 99 100 100
82 95 98 98 95 97 95 99 98 96 96 98 98 100 96 100 92 98 97 98 97 98 99 99 98 99 98 96 99 99 98 93 96 97 93 92 95 96 90 90 90 87 84 92 96 97 98 100 100 98 100 100 100 100
86 89 98 100 94 98 100 99 98 98 100 99 99 99 94 96 99 100 98 96 93 91 96 97 98 98 99 100 100 99 94 85 91 96 98 86 92 97 96 96 95 92 96 98 100 100 100 100 100 98 100 100 100 98
100 93 97 95 97 95 93 98 97 97 97 100 100 97 97 99 98 98 96 98 98 97 97 97 97 96 98 97 98 99 96 92 85 95 96 85 85 88 92 95 99 98 98 95 96 97 97 98 99 99 98 97 98 99
100 98 97 92 96 97 97 96 94 97 98 99 97 100 98 100 100 97 97 98 98 95 93 95 96 93 94 98 98 98 94 88 90 92 94 93 93 87 86 90 94 90 95 95 94 92 92 92 93 93 93 96 95 94
94 96 94 97 98 97 97 97 97 96 97 94 93 98 100 100 98 98 99 97 94 90 94 98 98 98 98 98 98 97 98 98 96 95 94 96 98 98 97 97 96 94 94 92 92 92 91 89 90 92 92 93 93 96
98 96 93 98 98 98 98 97 97 96 95 96 96 99 99 97 99 98 96 93 93 96 98 98 98 98 97 97 97 98 96 94 95 100 100 100 100 96 98 98 97 96 96 96 97 95 91 92 92 91 90 92 94 96
97 96 97 98 97 97 97 96 98 98 96 97 94 96 96 98 98 94 93 93 95 97 98 98 98 98 98 98 98 97 98 97 97 94 93 95 93 98 97 98 98 99 98 96 97 98 96 100 99 98 97 98 98 98
96 97 96 97 97 98 98 97 98 98 98 97 98 97 98 98 98 94 92 95 95 94 93 94 95 96 97 97 98 98 98 98 94 92 95 97 97 96 97 98 99 98 96 96 97 97 98 99 99 98 96 97 97 97
97 96 96 96 96 97 97 98 98 98 98 98 99 98 98 97 99 97 96 94 92 93 94 94 96 97 96 97 97 97 96 98 97 97 90 96 97 98 96 97 98 97 97 97 97 98 97 96 98 97 97 97 97 96
97 97 98 96 97 97 97 97 96 98 97 99 99 100 100 99 100 98 96 94 99 97 96 96 96 96 96 96 97 97 99 100 100 99 98 95 96 96 97 96 96 95 94 96 96 95 95 95 98 97 97 97 96 96

GFSWCAN_sfc_rhum_129.txt.gz
RH
90 89 86 88 89 87 82 78 82 79 76 77 79 86 84 81 81 87 99 95 82 96 76 83 76 80 76 70 76 76 74 75 81 83 75 82 78 78 76 85 80 73 72 75 70 80 82 77 63 78 99 95 85 89
92 89 87 91 91 87 81 77 83 81 81 78 82 86 83 80 79 80 95 93 93 92 83 89 81 76 70 63 83 84 69 79 80 86 89 80 86 84 76 86 75 90 75 75 74 85 90 84 87 88 83 80 83 82
92 88 89 91 90 86 83 82 83 82 83 79 84 82 81 82 80 80 97 96 92 93 79 77 74 74 73 71 66 79 81 81 85 82 86 90 83 82 82 72 83 80 77 87 83 90 88 86 81 77 79 78 78 78
93 86 84 87 87 83 81 82 84 83 84 83 84 84 83 81 80 80 96 95 92 89 93 76 60 70 76 71 70 73 81 81 83 81 81 84 73 74 74 72 78 76 76 90 91 94 89 85 84 83 82 79 78 75
94 91 83 86 88 88 84 84 81 84 85 83 83 82 82 80 81 87 97 98 89 80 90 75 72 69 72 75 76 76 79 78 74 83 88 82 75 78 78 80 88 76 87 88 86 94 86 92 92 86 88 83 78 74
89 90 83 88 89 89 89 86 79 84 84 84 81 81 78 71 66 84 94 91 94 89 86 81 76 74 84 80 77 78 81 84 80 78 90 84 75 77 86 81 82 86 84 83 92 93 90 91 87 88 91 88 79 75
94 84 83 87 91 89 89 86 81 85 84 82 81 76 75 79 91 92 89 89 91 90 87 84 86 76 82 79 88 89 82 84 84 85 80 75 71 84 95 93 84 86 87 88 86 88 94 92 91 87 84 82 77 73
93 86 87 89 88 86 85 82 82 83 82 82 76 76 77 76 77 92 90 89 88 94 85 92 91 89 72 89 90 83 88 84 86 85 82 80 80 82 88 82 86 81 81 89 90 83 87 89 85 85 78 72 73 73
93 92 91 90 88 86 84 83 83 82 83 74 69 67 77 88 91 97 84 85 94 89 92 91 94 96 84 93 88 87 82 89 80 88 80 80 85 95 85 83 86 80 81 86 79 74 73 78 78 76 72 70 70 71
94 90 90 90 86 86 84 84 84 84 78 67 75 87 94 93 76 88 88 93 94 93 92 91 82 94 87 94 95 90 89 90 94 82 85 92 85 91 84 80 79 85 78 76 84 84 74 75 73 70 70 65 64 66
90 91 90 89 84 79 85 85 84 75 70 89 96 97 88 80 88 92 96 92 92 92 91 85 80 93 89 94 98 91 94 87 87 87 92 90 89 90 84 82 78 78 84 82 74 71 64 64 67 68 70 68 68 68
92 92 91 88 82 84 85 84 73 81 81 82 90 91 91 86 90 86 94 87 90 86 89 87 87 86 98 90 92 95 84 92 84 92 96 95 86 86 83 79 76 76 75 76 72 74 70 66 64 67 69 72 74 78
88 90 91 88 81 84 83 72 71 78 82 88 87 90 91 93 92 86 97 92 95 93 90 92 96 95 97 87 93 90 81 91 85 91 82 84 84 84 77 72 70 67 72 76 78 78 79 87 86 84 93 94 93 95
84 90 91 90 85 83 75 81 76 76 85 90 89 99 92 96 89 89 85 89 90 94 97 96 97 95 93 92 95 88 83 76 94 98 86 82 91 87 76 70 71 82 90 90 93 91 93 94 99 98 97 97 96 94
86 92 92 91 87 80 83 76 75 90 91 95 80 93 99 93 95 96 94 95 94 96 95 96 94 88 95 91 88 86 90 99 87 86 84 85 92 87 88 82 88 91 95 95 93 94 96 98 96 99 96 96 96 96
82 88 97 92 80 80 78 81 88 90 91 91 86 97 96 97 96 96 98 92 98 99 97 97 91 95 94 89 84 83 83 88 85 87 84 88 93 91 91 91 91 91 92 94 93 92 94 95 94 93 94 94 96 94
79 97 94 94 85 78 79 94 89 90 94 86 98 92 92 97 98 98 98 100 98 98 98 97 90 88 87 84 82 80 89 87 85 88 87 88 91 93 93 92 93 93 94 92 93 92 93 92 93 87 90 93 90 91
95 98 96 97 96 94 98 96 90 84 88 98 93 97 96 99 99 98 98 98 99 98 96 96 82 89 90 88 86 87 89 92 92 91 92 92 93 93 90 91 92 91 92 93 92 93 94 95 87 79 85 89 89 91
94 96 96 90 92 97 94 96 85 90 94 95 96 97 97 98 97 96 97 96 97 99 98 93 95 91 88 88 88 89 95 93 94 96 93 95 93 92 92 91 91 91 92 92 90 83 81 85 76 74 74 77 79 80
81 81 84 83 84 92 91 92 91 86 94 92 96 98 98 96 96 100 98 96 95 98 98 98 95 92 92 89 90 88 90 89 88 94 95 94 92 93 91 87 84 87 86 90 86 86 81 82 80 80 79 79 86 87
76 88 85 90 95 92 91 93 93 90 92 90 91 91 96 94 97 96 96 90 97 99 98 96 95 90 95 95 89 86 90 84 87 81 86 93 94 84 86 86 87 83 83 87 87 87 92 86 79 80 92 94 93 90
95 82 97 92 94 86 88 92 90 91 90 94 93 94 98 98 99 99 92 98 94 93 96 96 94 98 98 96 93 90 92 90 89 86 89 87 93 91 91 90 88 91 87 89 83 89 87 81 83 88 93 95 94 90
81 86 95 92 91 87 93 94 89 89 95 94 94 95 97 99 94 90 96 93 95 94 93 93 96 95 94 97 93 92 92 86 85 86 87 85 83 85 87 88 85 90 88 83 76 82 87 88 92 93 92 95 90 91
78 92 95 98 91 98 92 98 96 95 96 98 97 98 94 97 91 95 94 94 93 90 90 94 91 92 92 90 89 90 88 82 84 86 85 84 87 86 80 80 82 80 74 72 81 86 88 94 95 92 95 94 91 88
76 80 96 99 87 96 98 100 98 97 98 96 98 97 94 93 98 99 95 93 94 95 93 91 92 91 91 94 91 88 87 80 83 85 87 78 83 88 86 82 82 79 82 92 94 94 95 95 96 96 96 95 91 91
100 94 97 98 98 97 93 97 96 96 96 100 100 94 95 96 96 96 92 96 96 95 96 96 95 92 91 88 89 90 88 82 79 82 86 80 82 88 92 94 95 92 86 85 90 94 94 95 96 97 96 95 96 92
99 97 96 88 96 96 96 96 94 96 96 98 96 99 96 99 99 94 92 91 90 91 89 91 90 90 93 93 91 91 88 83 84 80 81 82 80 77 83 89 90 82 89 90 90 90 91 94 96 95 94 93 92 92
94 95 95 97 98 96 96 96 96 96 96 90 92 95 96 96 96 94 93 91 92 87 89 91 91 91 92 93 93 94 94 94 95 94 92 91 90 92 91 89 88 93 89 90 91 92 92 92 92 93 93 92 91 91
99 96 93 98 97 96 96 97 97 95 94 94 96 95 95 91 94 93 89 91 91 91 93 94 93 95 94 94 95 94 94 94 93 95 93 95 97 93 93 93 92 92 93 94 98 94 91 92 92 91 88 88 88 90
97 94 97 98 98 97 97 95 97 97 94 94 91 92 90 96 93 91 92 92 94 96 97 96 96 96 97 97 96 95 95 95 96 96 95 94 90 90 95 95 94 94 94 94 95 93 94 96 96 93 93 94 93 93
96 96 96 96 97 97 96 96 97 96 96 95 96 96 94 96 96 93 92 95 95 94 93 94 94 95 97 96 97 97 96 96 95 94 94 95 94 92 93 94 94 94 94 94 95 94 95 95 93 93 93 92 92 92
97 96 97 97 96 97 97 97 97 96 97 96 96 95 96 96 97 96 95 94 93 94 94 95 96 95 95 95 96 95 96 96 96 95 93 92 90 93 93 93 94 94 94 94 94 94 94 93 94 93 93 91 92 92
96 96 95 95 96 95 96 96 95 96 96 96 96 96 96 96 97 94 90 92 96 98 97 96 96 96 96 95 96 95 95 96 98 100 100 100 97 97 95 94 94 94 93 94 94 92 91 90 93 93 93 92 91 90

GFSWCAN_sfc_rhum_132.txt.gz
RH
89 88 86 86 87 82 82 83 80 78 77 78 84 85 83 81 77 66 80 72 63 80 67 61 55 53 51 41 54 63 55 58 60 66 54 57 58 52 52 61 68 64 63 70 61 62 77 56 50 69 90 73 68 66
90 89 88 88 87 81 81 83 82 82 78 81 88 85 81 80 75 66 66 68 70 69 70 66 67 63 50 46 53 60 56 57 50 64 63 48 64 63 48 68 60 80 62 63 65 82 73 61 74 72 66 70 70 68
87 92 88 88 88 86 85 87 83 84 82 85 86 81 80 81 76 66 75 75 61 79 57 50 61 61 53 57 54 50 59 64 65 66 55 65 62 59 64 56 66 69 63 72 72 79 70 67 61 60 58 67 65 61
89 90 89 88 89 87 85 89 83 85 85 88 86 85 82 79 76 70 77 68 59 56 77 65 48 64 58 53 58 54 63 65 62 51 55 60 56 54 50 51 51 55 61 90 89 87 77 68 67 64 66 64 66 60
90 93 91 90 88 85 86 86 82 85 86 86 85 82 80 79 78 71 77 74 64 54 73 62 58 61 59 53 53 52 53 54 46 67 73 65 46 52 51 52 64 54 83 82 92 94 82 84 78 66 72 67 61 61
92 89 88 86 84 82 86 81 84 86 87 86 85 80 73 67 62 49 93 69 65 72 65 71 62 68 64 57 58 59 55 58 50 53 76 61 57 56 70 56 66 65 63 65 90 91 84 86 77 68 81 74 60 61
90 86 87 85 86 85 87 81 82 85 86 85 78 78 80 80 71 77 75 80 79 70 70 73 74 70 63 63 66 64 60 57 52 53 52 47 50 59 70 63 64 72 69 73 73 80 93 83 84 77 73 70 64 60
92 88 87 90 92 90 87 82 84 80 84 81 86 81 75 75 73 73 70 78 74 68 59 82 92 94 68 70 69 62 61 57 59 57 53 55 59 60 76 58 64 67 65 77 73 66 70 78 75 73 67 61 61 61
90 89 90 90 91 90 85 81 80 83 81 78 69 64 59 71 79 73 80 76 74 71 79 88 80 94 69 76 72 67 62 77 55 68 56 61 64 87 73 67 72 64 64 71 63 61 64 70 71 67 62 58 56 58
87 89 90 90 88 87 81 82 82 79 71 64 59 76 100 92 79 81 73 92 82 75 71 79 57 92 68 80 83 74 76 76 87 67 63 77 76 80 70 57 61 61 62 61 67 68 60 62 60 56 54 50 49 50
89 89 88 89 80 83 83 80 79 68 63 74 97 98 89 81 69 77 97 83 76 76 67 65 59 84 70 79 93 75 78 74 79 78 77 74 72 79 70 72 70 67 61 60 57 54 52 53 55 56 54 52 51 52
92 91 88 85 84 85 85 81 72 63 60 70 85 86 75 67 78 82 84 76 68 68 74 79 73 70 87 75 80 80 76 77 76 79 88 78 71 69 66 69 71 72 67 64 61 61 58 54 52 51 51 53 57 62
90 88 84 84 86 85 80 71 68 77 74 67 71 96 84 82 77 70 87 77 80 81 80 84 95 91 83 70 88 92 82 84 65 83 77 68 72 67 62 61 62 57 59 60 63 62 64 70 67 66 77 84 87 90
90 86 80 84 85 79 71 78 78 67 64 83 78 89 80 81 75 74 72 76 86 84 85 83 94 87 82 90 94 87 82 68 84 85 78 68 83 74 63 59 58 70 76 79 85 87 88 89 91 89 88 88 89 91
92 87 84 85 78 80 81 74 72 72 73 82 66 85 87 91 92 95 95 87 92 85 84 91 84 70 89 98 84 82 91 84 70 73 77 81 85 75 76 69 73 82 91 90 88 89 90 91 89 92 91 89 86 89
93 93 94 80 82 76 74 70 71 68 68 74 76 89 92 91 99 100 98 98 98 92 89 85 86 95 96 80 81 83 70 74 81 79 80 77 87 82 82 79 83 85 85 87 85 85 87 89 87 86 88 88 88 86
92 99 92 89 81 80 75 72 65 72 69 67 92 89 92 95 97 100 100 99 98 100 99 86 93 82 74 74 73 62 84 85 86 82 73 78 87 88 86 87 90 88 87 84 84 83 85 83 84 81 86 89 83 82
98 97 89 76 71 80 80 73 62 54 67 82 85 96 96 100 100 99 97 95 96 84 91 88 65 79 85 76 74 79 83 87 80 86 86 89 90 87 88 87 87 85 84 85 84 85 86 88 81 74 76 78 73 75
97 97 90 80 81 75 75 77 59 62 84 85 89 91 94 98 93 91 94 88 90 95 89 88 97 80 80 75 93 100 99 87 87 89 88 89 88 89 88 87 86 85 84 86 84 73 71 76 63 59 59 63 62 63
96 93 86 80 74 67 69 74 68 59 68 84 83 89 84 90 91 99 95 77 80 93 95 94 92 97 98 99 93 95 95 83 78 80 85 85 86 90 88 81 74 80 76 79 76 71 66 65 60 58 58 58 66 67
77 87 80 76 75 70 66 68 66 66 66 72 71 64 81 79 86 95 84 70 89 87 83 91 100 97 97 92 83 78 82 73 77 68 74 82 83 75 78 75 75 70 68 73 74 72 71 66 60 58 76 82 79 76
82 75 76 72 72 68 73 71 65 67 66 79 74 68 85 98 96 93 72 84 77 85 90 90 88 88 85 93 89 89 91 84 81 72 78 77 82 78 78 76 73 78 74 78 68 74 71 59 62 68 79 84 82 76
70 69 77 71 83 79 91 79 78 68 82 83 77 80 87 89 80 73 89 79 85 84 82 80 87 89 92 90 85 86 87 80 70 71 75 73 71 75 74 74 73 80 77 67 60 66 73 66 73 81 79 85 84 85
72 84 85 88 78 96 87 84 72 76 78 80 80 85 80 84 80 86 84 84 83 76 73 84 79 78 73 78 72 72 77 68 67 71 72 70 71 71 66 66 65 67 62 58 64 70 73 84 79 82 84 87 87 87
61 75 83 95 81 92 93 93 88 81 86 85 87 87 86 83 88 87 84 83 80 84 83 76 73 76 82 78 74 72 76 66 66 67 73 64 66 68 68 63 63 61 63 79 83 83 84 84 87 85 84 87 84 88
80 81 82 82 87 86 84 91 90 88 86 90 89 82 89 89 91 86 77 85 88 85 92 90 88 80 74 80 81 74 72 66 65 67 64 63 65 80 82 82 81 79 67 76 82 83 82 83 85 85 87 86 87 86
85 87 81 67 84 85 90 88 84 90 92 92 90 93 91 90 87 86 78 79 77 81 79 79 82 79 79 78 77 78 77 69 73 66 64 63 63 62 73 84 82 71 71 78 79 80 79 83 85 86 86 86 88 90
84 85 93 92 90 86 94 92 90 92 93 89 90 92 89 87 86 85 81 78 82 77 76 77 78 78 79 79 83 86 87 85 86 82 78 76 74 80 79 80 77 79 78 81 82 80 79 80 83 85 87 89 89 89
92 87 86 94 92 90 90 91 92 86 83 85 90 89 88 83 88 88 84 84 81 82 84 86 88 88 85 84 87 86 88 91 89 86 86 88 86 85 83 85 86 84 87 87 83 79 80 82 84 86 90 92 89 85
88 84 90 92 93 89 93 87 91 91 81 84 78 75 75 84 87 82 84 84 86 92 92 91 91 92 93 92 90 89 91 91 92 92 92 90 92 89 90 92 91 92 93 91 89 88 87 89 92 90 90 89 89 89
84 88 90 88 90 92 92 92 93 90 90 88 91 90 86 88 87 84 85 88 88 89 90 91 90 90 91 91 92 92 92 92 91 90 91 91 92 92 91 91 93 94 92 91 91 90 90 91 88 88 88 88 88 89
92 90 91 91 91 92 91 91 90 91 91 91 92 89 91 89 90 87 88 89 89 91 91 91 92 91 90 91 91 91 92 92 92 92 91 90 89 89 88 88 91 91 91 90 91 91 91 90 90 88 88 85 85 84
93 93 92 91 91 89 91 90 84 89 90 89 91 90 91 90 92 89 84 88 92 92 93 92 91 91 90 90 91 91 89 90 91 93 91 93 96 92 89 90 89 89 89 91 91 90 88 84 84 83 83 85 86 84